RH
33 27 13 16 36 29 42 52 65 57 56 63 59 63 65 67 58 71 76 69 68 62 55 51 49 43 39 36 37 37 35 32 30 30 27 23 21 16 14 16 15 14 12 11 11 10 9 10 11
32 24 17 14 29 35 50 58 64 68 66 65 60 62 64 68 60 63 68 61 58 57 54 50 44 41 39 37 35 34 31 26 25 23 20 18 14 12 12 13 11 11 13 12 9 8 8 8 11
26 28 21 26 26 32 54 57 62 63 68 68 60 65 65 69 60 56 62 57 59 62 54 45 41 40 39 34 30 25 22 22 21 18 17 13 9 10 12 12 13 15 14 13 12 11 11 10 10
33 34 38 38 35 39 45 50 58 57 64 62 56 51 50 44 44 47 55 54 53 52 47 40 38 37 27 20 19 20 19 19 18 17 11 9 10 12 13 14 17 17 17 17 17 16 14 13 13
30 38 31 44 50 48 51 54 56 52 60 59 52 53 50 52 44 46 50 49 44 38 34 28 24 18 18 19 19 17 17 17 15 10 9 10 13 15 14 16 17 18 20 22 23 24 25 25 24
27 32 41 49 51 55 58 60 57 57 55 54 50 48 43 46 27 38 40 32 30 22 19 18 17 17 16 15 14 15 14 12 10 9 11 15 16 16 17 20 22 25 26 28 30 31 30 29 29
31 30 42 50 57 63 55 52 52 50 50 50 49 39 39 39 33 33 33 20 16 16 15 15 15 15 12 11 11 11 10 9 10 13 18 19 24 26 28 30 30 31 33 32 32 31 30 30 30
36 37 41 49 59 55 56 51 46 45 47 40 39 32 33 28 28 29 29 20 17 15 15 15 14 10 8 8 8 9 12 15 18 22 27 30 30 30 30 30 31 33 35 35 34 34 32 32 31
39 41 41 45 50 52 48 43 36 36 35 30 28 29 25 22 21 22 21 18 16 17 17 15 13 15 13 13 16 21 24 25 28 30 33 33 35 34 35 35 35 35 37 38 37 38 37 36 34
38 34 40 45 53 47 42 38 28 23 25 29 29 30 27 18 18 18 17 18 19 21 21 21 19 17 20 26 28 30 33 34 34 36 35 36 37 38 38 37 38 39 39 40 40 39 39 40 39
31 29 30 34 44 35 31 20 20 14 17 16 18 23 24 21 23 18 18 18 19 28 28 30 25 23 27 30 34 37 38 38 39 39 36 38 38 39 41 40 39 38 40 41 41 40 40 40 39
27 25 24 33 28 26 23 13 13 11 12 14 17 18 23 25 24 20 20 25 36 36 38 39 33 28 29 35 40 46 46 45 47 45 42 38 39 40 42 43 44 45 46 45 45 43 41 41 38
26 26 26 25 22 21 14 9 9 10 11 15 18 22 23 26 30 29 28 32 35 35 40 45 40 38 37 42 55 55 50 51 53 51 48 42 41 45 50 52 52 53 53 51 49 50 48 45 42
27 19 17 22 21 11 8 8 9 13 16 19 19 21 23 29 33 34 32 33 34 37 40 48 43 56 56 53 63 62 58 62 55 55 52 51 49 52 56 58 56 56 56 54 52 51 51 49 47
20 15 6 10 16 9 9 14 17 21 21 22 20 22 27 31 32 33 33 34 36 38 38 42 46 51 52 59 59 61 65 67 62 63 60 58 55 61 64 61 59 57 53 54 52 51 52 52 50
13 15 19 22 21 18 20 23 28 27 22 23 25 25 28 32 35 38 43 45 43 44 51 58 56 62 63 56 56 64 63 64 68 67 65 63 67 69 67 62 60 59 56 55 55 48 46 49 50
26 22 26 26 28 25 23 25 30 23 24 26 26 29 33 38 41 47 51 47 47 47 55 59 84 70 68 67 67 61 67 75 79 71 70 74 76 75 72 68 63 60 59 51 49 46 44 45 42
32 31 28 36 32 29 33 29 27 29 31 27 28 30 31 32 40 48 55 55 52 52 67 76 71 73 81 74 66 67 74 74 73 75 75 76 70 67 64 64 65 60 54 52 50 47 45 44 41
37 34 31 35 36 34 36 33 34 36 36 36 36 35 37 40 44 48 51 53 58 68 74 71 79 82 71 66 71 75 74 75 75 75 77 73 69 66 67 63 56 53 51 52 49 46 45 44 40
40 36 38 36 31 31 36 37 40 41 40 39 41 42 46 53 52 55 59 66 75 70 68 70 67 65 68 74 75 74 73 73 76 79 75 71 65 61 56 55 53 51 51 49 50 49 46 45 46
38 38 36 34 29 27 33 40 44 46 43 41 43 48 54 58 58 60 61 60 60 62 64 61 63 65 67 70 72 72 73 74 73 67 65 62 57 53 50 48 48 48 48 48 51 53 55 53 51
28 36 36 32 26 29 34 51 49 47 46 45 51 54 57 58 58 57 54 50 47 50 51 53 58 62 63 64 65 67 67 63 58 56 52 50 48 46 46 49 51 52 53 53 55 55 52 50 46
26 25 24 22 25 26 37 50 54 51 50 50 55 58 58 57 53 48 47 46 46 48 49 51 54 57 59 58 55 51 49 48 48 47 46 50 54 56 53 57 61 65 63 48 42 45 46 46 48
24 25 30 32 31 40 43 49 58 56 55 59 65 61 61 57 49 47 48 48 50 50 51 53 53 51 52 51 51 49 47 47 46 48 51 54 57 59 58 69 63 61 55 44 43 41 41 42 42
24 31 46 49 55 54 47 59 61 60 61 63 66 60 58 56 59 61 55 52 51 53 58 59 60 60 56 52 49 49 48 49 52 55 57 67 65 78 58 60 56 56 46 35 34 35 36 36 44
31 33 49 55 63 60 51 58 56 59 64 68 60 62 62 67 61 60 62 60 60 58 56 54 54 57 57 56 58 58 59 61 60 64 65 75 72 73 57 55 49 46 41 32 28 26 28 32 37
31 29 29 40 46 46 48 49 51 54 59 62 72 73 66 63 58 64 67 67 64 58 55 58 60 63 62 61 62 65 67 62 60 61 42 42 43 49 56 60 52 37 28 30 35 41 38 32 35
23 25 34 37 40 48 50 52 58 58 60 60 59 56 57 61 68 70 70 67 58 60 62 63 62 61 61 62 60 57 50 43 39 36 39 52 56 61 70 68 55 47 50 51 51 52 30 34 37
30 30 31 33 41 48 58 51 46 51 51 52 50 54 62 72 75 73 71 67 63 64 63 60 61 59 58 57 48 36 36 39 42 44 45 53 62 84 79 71 72 68 59 53 52 43 34 38 40
25 30 32 42 42 52 56 50 46 49 53 59 61 63 67 79 77 72 70 67 67 64 62 63 60 56 51 41 36 36 38 40 44 46 49 56 63 71 80 88 80 72 61 53 46 36 43 40 40